Location: Anciles
(42.5833°N, 0.5167°E)
Time: 17:36:56
(UTC+00:00)

Okean O Rocket - Pass Details

Date: 10 December 2019
Orbit: 624 x 644 km, 98.2° (Epoch: 29 January)

Event Time Altitude Azimuth Distance (km) Brightness Sun altitude
Rises 16:51:05 0° 173° (S) 2,893 5.3 -5.1°
Reaches altitude 10° 16:53:17 10° 176° (S) 1,990 4.5 -5.5°
Maximum altitude 16:57:35 64° 258° (WSW) 694 2.2 -6.2°
Drops below altitude 10° 17:01:54 10° 341° (NNW) 2,005 4.1 -6.9°
Sets 17:04:08 0° 344° (NNW) 2,917 4.9 -7.3°
